Miscellaneous Local Product
Issued by NWS North Platte, NE

Home | Current Version | Previous Version | Text Only | Print | Product List | Glossary On
Versions: 1 2 3 4 5 6 7 8 9 10 11 12 13 14 15 16 17 18 19 20 21 22 23 24 25 26 27 28 29 30 31 32 33 34 35 36 37 38 39 40 41 42 43 44 45 46 47 48 49 50
000
AXUS43 KLBF 231710
MISLBF


WESTERN AND NORTH CENTRAL NEBRASKA HOURLY WEATHER ROUNDUP
NATIONAL WEATHER SERVICE NORTH PLATTE NE
1100 AM CST SUN NOV 23 2014

***STATIONS NOT REPORTING VARIABLES SUCH AS SKY/WEATHER OR
PRESSURE ARE PROVIDED BY THE NEBRASKA DEPARTMENT OF
ROADS...RAWS...AND APRS NETWORKS...AND ARE NOT UNDER
NATIONAL WEATHER SERVICE QUALITY CONTROL***

...OBSERVATIONS IN AND NEAR THE EASTERN PANHANDLE OF NEBRASKA...

CITY           SKY/WX    TMP DP  RH WIND       PRES   REMARKS
PINE RIDGE     SUNNY     40  22  48 NW9       29.75R WCI  34
CHADRON        SUNNY     38  20  48 NW26G35   29.78S WCI  26
ALLIANCE       SUNNY     40  17  39 N28G37    29.75R WCI  29
SIDNEY         PTSUNNY   38  15  39 N23G35    29.77R WCI  27
WHITECLAY        N/A     39  20  46 W8          N/A  WCI  33
LISCO            N/A     41   9  26 NW26        N/A
BIG SPRINGS      N/A     40  20  44 NW12        N/A  WCI  33
LEWELLEN         N/A     16  -6  38 CALM        N/A
$$

...OBSERVATIONS IN NORTH CENTRAL NEBRASKA...

CITY           SKY/WX    TMP DP  RH WIND       PRES   REMARKS
VALENTINE      MOSUNNY   43  24  47 NW20G30   29.69R
THEDFORD       CLOUDY    44  22  42 N21G33    29.71R
AINSWORTH      CLOUDY    40  26  56 NW18G30   29.69S WCI  31
O`NEILL        CLOUDY    42  32  68 NW20G25   29.65S
ORD            CLOUDY    43  28  55 N25G36    29.64R
BROKEN BOW     CLOUDY    44  27  51 N32G43    29.65S
BROWNLEE         N/A     44  23  43 NW29        N/A
BREWSTER         N/A     44  26  48 W22         N/A
COMSTOCK         N/A     44  27  51 E20         N/A
$$

...OBSERVATIONS IN SOUTHWEST NEBRASKA AND FAR NORTHEAST COLORADO...

CITY           SKY/WX    TMP DP  RH WIND       PRES   REMARKS
WRAY           FAIR      43  14  30 N24G36    29.76R
HOLYOKE        FAIR      43  18  36 N23G29    29.75R
IMPERIAL       CLOUDY    42  16  34 N23G29    29.74R
OGALLALA       CLOUDY    43  19  38 N22G29    29.73R
NORTH PLATTE   CLOUDY    45  19  35 N22G37    29.70R
MCCOOK         CLOUDY    46  21  37 N22G35    29.68R
LEXINGTON      CLOUDY    46  27  48 N30G37    29.66S
PAXTON           N/A     42  26  52 NW7         N/A
GOTHENBURG       N/A     44  21  39 N20         N/A
CALLAWAY         N/A     42  25  50 N25         N/A
$$

...SOME WEATHER OBSERVATIONS FROM AROUND THE REGION...

CITY           SKY/WX    TMP DP  RH WIND       PRES   REMARKS
DENVER         PTSUNNY   39  22  50 VRB5      29.80S
LARAMIE        PTSUNNY   28  11  48 NW21      29.81R WCI  15
CHEYENNE       SUNNY     35   9  33 NW29G41   29.77S WCI  22
SCOTTSBLUFF    SUNNY     43  16  33 NW26G39   29.78R
RAPID CITY     SUNNY     42  19  39 NW37G46   29.69S
PIERRE         MOSUNNY   41  30  65 W21G29    29.63R
WINNER         FAIR      43  29  57 NW17G28   29.67S
SIOUX FALLS    LGT RAIN  39  36  89 NW15      29.55R WCI  31
OMAHA          CLOUDY    49  42  77 NW22      29.48R
KANSAS CITY    CLOUDY    56  55  97 S6        29.45F FOG
WICHITA        LGT RAIN  55  51  86 N5        29.43F
HAYS           CLOUDY    46  30  53 N40G47    29.61R
LIBERAL        PTSUNNY   48  28  46 N43G51    29.63R
GOODLAND       CLOUDY    42  15  33 N29G37    29.71R
$$



USA.gov is the U.S. government's official web portal to all federal, state and local government web resources and services.